TimeEST,TemperatureF,Dew PointF,Humidity,Sea Level PressureIn,VisibilityMPH,Wind Direction,Wind SpeedMPH,Gust SpeedMPH,PrecipitationIn,Events,Conditions,WindDirDegrees,DateUTC
12:53 AM,52.0,45.0,77,30.07,10.0,Calm,Calm,-,N/A,,Clear,0,2013-11-03 04:53:00
1:53 AM,50.0,45.0,83,30.08,10.0,Calm,Calm,-,N/A,,Clear,0,2013-11-03 05:53:00
1:53 AM,48.9,44.1,83,30.09,10.0,Calm,Calm,-,N/A,,Clear,0,2013-11-03 06:53:00
2:53 AM,48.9,43.0,80,30.09,10.0,North,5.8,-,N/A,,Clear,350,2013-11-03 07:53:00
3:53 AM,50.0,41.0,71,30.11,10.0,NNW,4.6,-,N/A,,Clear,340,2013-11-03 08:53:00
4:53 AM,48.9,41.0,74,30.12,10.0,North,3.5,-,N/A,,Clear,10,2013-11-03 09:53:00
5:53 AM,46.9,41.0,80,30.15,10.0,Calm,Calm,-,N/A,,Clear,0,2013-11-03 10:53:00
6:53 AM,44.1,41.0,89,30.17,10.0,Calm,Calm,-,N/A,,Clear,0,2013-11-03 11:53:00
7:53 AM,48.9,43.0,80,30.20,10.0,North,3.5,-,N/A,,Clear,10,2013-11-03 12:53:00
8:53 AM,54.0,43.0,66,30.22,10.0,NE,9.2,-,N/A,,Clear,40,2013-11-03 13:53:00
9:53 AM,59.0,43.0,55,30.23,10.0,NNE,10.4,-,N/A,,Clear,30,2013-11-03 14:53:00
10:53 AM,62.1,41.0,46,30.23,10.0,NE,11.5,17.3,N/A,,Clear,40,2013-11-03 15:53:00
11:53 AM,66.0,41.0,40,30.22,10.0,NE,9.2,-,N/A,,Clear,50,2013-11-03 16:53:00
12:53 PM,66.9,39.9,37,30.19,10.0,ENE,12.7,-,N/A,,Clear,60,2013-11-03 17:53:00
1:53 PM,69.1,39.0,33,30.17,10.0,NE,9.2,-,N/A,,Clear,50,2013-11-03 18:53:00
2:53 PM,68.0,37.0,32,30.17,10.0,Variable,6.9,-,N/A,,Clear,0,2013-11-03 19:53:00
3:53 PM,68.0,37.9,33,30.18,10.0,NNE,8.1,-,N/A,,Clear,30,2013-11-03 20:53:00
4:53 PM,66.0,39.0,37,30.19,10.0,ENE,6.9,-,N/A,,Clear,70,2013-11-03 21:53:00
5:53 PM,59.0,42.1,53,30.19,10.0,ENE,4.6,-,N/A,,Clear,70,2013-11-03 22:53:00
6:53 PM,54.0,45.0,72,30.22,10.0,Calm,Calm,-,N/A,,Clear,0,2013-11-03 23:53:00
7:53 PM,53.1,45.0,74,30.24,10.0,Calm,Calm,-,N/A,,Clear,0,2013-11-04 00:53:00
8:53 PM,50.0,45.0,83,30.26,10.0,Calm,Calm,-,N/A,,Clear,0,2013-11-04 01:53:00
9:53 PM,50.0,45.0,83,30.27,10.0,Calm,Calm,-,N/A,,Clear,0,2013-11-04 02:53:00
10:53 PM,48.9,44.1,83,30.27,10.0,ENE,3.5,-,N/A,,Clear,60,2013-11-04 03:53:00